Location: Celina Elementary School
(33.3262°N, 96.7767°W)
Time: 08:34:17
(UTC+00:00)

PSLV R/B - Pass Details

Date: 26 November 2021
Orbit: 502 x 574 km, 97.8° (Epoch: 19 January)

Event Time Altitude Azimuth Distance (km) Brightness Sun altitude
Rises 23:48:39 0° 149° (SSE) 2,597 7.2 -6.3°
Reaches altitude 10° 23:50:50 10° 140° (SE) 1,710 6.1 -6.7°
Maximum altitude 23:54:12 35° 74° (ENE) 833 4.2 -7.4°
Drops below altitude 10° 23:57:33 10° 8° (N) 1,714 6.1 -8.0°
Sets 23:59:45 0° 359° (N) 2,604 7.1 -8.5°
